"Period start","avg(HW err(1)/warn(2) (#))","avg(Visibility (m))","avg(Weather code (#))","avg(Precip intensity (mm/h))","min(HW err(1)/warn(2) (#))","max(HW err(1)/warn(2) (#))","std(HW err(1)/warn(2) (#))","med(HW err(1)/warn(2) (#))","min(Visibility (m))","max(Visibility (m))","std(Visibility (m))","med(Visibility (m))","min(Weather code (#))","max(Weather code (#))","std(Weather code (#))","med(Weather code (#))","min(Precip intensity (mm/h))","max(Precip intensity (mm/h))","std(Precip intensity (mm/h))","med(Precip intensity (mm/h))"
2017-06-26 00:00:00,0,41281,0,0.00,0,0,0,0,30733,50000,5874,42639,0,0,0,0,0.00,0.00,0.00,0.00
2017-06-26 00:10:00,0,41517,0,0.00,0,0,0,0,34694,50000,5057,40633,0,0,0,0,0.00,0.00,0.00,0.00
2017-06-26 00:20:00,0,42046,0,0.00,0,0,0,0,29191,50000,6659,43920,0,0,0,0,0.00,0.00,0.00,0.00
2017-06-26 00:30:00,0,35016,0,0.00,0,0,0,0,23562,45367,6833,36024,0,0,0,0,0.00,0.00,0.00,0.00
2017-06-26 00:40:00,0,37726,0,0.00,0,0,0,0,28531,45202,5728,38548,0,0,0,0,0.00,0.00,0.00,0.00
2017-06-26 00:50:00,0,38336,0,0.00,0,0,0,0,19182,48310,9132,38895,0,0,0,0,0.00,0.00,0.00,0.00
2017-06-26 01:00:00,0,29831,0,0.00,0,0,0,0,21246,43883,6664,27502,0,0,0,0,0.00,0.00,0.00,0.00
2017-06-26 01:10:00,0,44036,0,0.00,0,0,0,0,31176,50000,5944,45392,0,0,0,0,0.00,0.00,0.00,0.00
2017-06-26 01:20:00,0,39695,0,0.00,0,0,0,0,28943,48638,6253,40654,0,0,0,0,0.00,0.00,0.00,0.00
2017-06-26 01:30:00,0,40049,0,0.00,0,0,0,0,26834,47538,6899,42696,0,0,0,0,0.00,0.00,0.00,0.00
2017-06-26 01:40:00,0,35505,0,0.00,0,0,0,0,29933,43894,4533,33790,0,0,0,0,0.00,0.00,0.00,0.00
2017-06-26 01:50:00,0,30772,0,0.00,0,0,0,0,18455,50000,8228,28254,0,0,0,0,0.00,0.00,0.00,0.00
2017-06-26 02:00:00,0,42075,0,0.00,0,0,0,0,19203,50000,9066,45855,0,0,0,0,0.00,0.00,0.00,0.00
2017-06-26 02:10:00,0,28085,0,0.00,0,0,0,0,20109,34036,4085,26902,0,0,0,0,0.00,0.00,0.00,0.00
2017-06-26 02:20:00,0,38171,0,0.00,0,0,0,0,19547,50000,9801,38176,0,0,0,0,0.00,0.00,0.00,0.00
2017-06-26 02:30:00,0,34184,0,0.00,0,0,0,0,16215,50000,9618,32497,0,0,0,0,0.00,0.00,0.00,0.00
2017-06-26 02:40:00,0,32954,0,0.00,0,0,0,0,17990,49033,10268,29350,0,0,0,0,0.00,0.00,0.00,0.00
2017-06-26 02:50:00,0,43319,0,0.00,0,0,0,0,24955,50000,8120,46702,0,0,0,0,0.00,0.00,0.00,0.00
2017-06-26 03:00:00,0,33051,0,0.00,0,0,0,0,25292,47191,5879,31440,0,0,0,0,0.00,0.00,0.00,0.00
2017-06-26 03:10:00,0,36119,0,0.00,0,0,0,0,27938,45869,5993,38385,0,0,0,0,0.00,0.00,0.00,0.00
2017-06-26 03:20:00,0,39303,0,0.00,0,0,0,0,31323,50000,5278,39274,0,0,0,0,0.00,0.00,0.00,0.00
2017-06-26 03:30:00,0,40381,0,0.00,0,0,0,0,22857,48926,7057,40714,0,0,0,0,0.00,0.00,0.00,0.00
2017-06-26 03:40:00,0,30298,0,0.00,0,0,0,0,19705,36944,4720,30093,0,0,0,0,0.00,0.00,0.00,0.00
2017-06-26 03:50:00,0,38751,0,0.00,0,0,0,0,27722,43999,4767,40598,0,0,0,0,0.00,0.00,0.00,0.00
2017-06-26 04:00:00,0,38222,0,0.00,0,0,0,0,26020,47737,6563,40061,0,0,0,0,0.00,0.00,0.00,0.00
2017-06-26 04:10:00,0,38635,0,0.00,0,0,0,0,24007,50000,9902,37903,0,0,0,0,0.00,0.00,0.00,0.00
2017-06-26 04:20:00,0,36563,0,0.00,0,0,0,0,24558,50000,7973,34756,0,0,0,0,0.00,0.00,0.00,0.00
2017-06-26 04:30:00,0,39378,0,0.00,0,0,0,0,32607,49781,4959,39028,0,0,0,0,0.00,0.00,0.00,0.00
2017-06-26 04:40:00,0,37223,0,0.00,0,0,0,0,23526,50000,7495,38578,0,0,0,0,0.00,0.00,0.00,0.00
2017-06-26 04:50:00,0,41763,0,0.00,0,0,0,0,29797,50000,6234,42436,0,0,0,0,0.00,0.00,0.00,0.00
2017-06-26 05:00:00,0,42281,0,0.00,0,0,0,0,33987,49565,4806,41740,0,0,0,0,0.00,0.00,0.00,0.00
2017-06-26 05:10:00,0,39769,0,0.00,0,0,0,0,34326,46348,4005,38808,0,0,0,0,0.00,0.00,0.00,0.00
2017-06-26 05:20:00,0,41357,0,0.00,0,0,0,0,32470,48068,5796,42780,0,0,0,0,0.00,0.00,0.00,0.00
2017-06-26 05:30:00,0,35422,0,0.00,0,0,0,0,28374,41555,4386,35598,0,0,0,0,0.00,0.00,0.00,0.00
2017-06-26 05:40:00,0,42822,0,0.00,0,0,0,0,33021,50000,5370,44078,0,0,0,0,0.00,0.00,0.00,0.00
2017-06-26 05:50:00,0,43652,0,0.00,0,0,0,0,30778,50000,5420,45042,0,0,0,0,0.00,0.00,0.00,0.00
2017-06-26 06:00:00,0,38300,0,0.00,0,0,0,0,32341,48030,4687,38126,0,0,0,0,0.00,0.00,0.00,0.00
2017-06-26 06:10:00,0,42770,0,0.00,0,0,0,0,35368,47367,4415,44910,0,0,0,0,0.00,0.00,0.00,0.00
2017-06-26 06:20:00,0,37013,0,0.00,0,0,0,0,29318,45355,4993,37200,0,0,0,0,0.00,0.00,0.00,0.00
2017-06-26 06:30:00,0,34703,0,0.00,0,0,0,0,25041,41092,5870,36424,0,0,0,0,0.00,0.00,0.00,0.00
2017-06-26 06:40:00,0,41667,0,0.00,0,0,0,0,36640,50000,3705,41064,0,0,0,0,0.00,0.00,0.00,0.00
2017-06-26 06:50:00,0,36176,0,0.00,0,0,0,0,28626,41544,4719,36576,0,0,0,0,0.00,0.00,0.00,0.00
2017-06-26 07:00:00,0,40422,0,0.00,0,0,0,0,32277,46718,4138,41480,0,0,0,0,0.00,0.00,0.00,0.00
2017-06-26 07:10:00,0,37867,0,0.00,0,0,0,0,25434,44697,5147,37408,0,0,0,0,0.00,0.00,0.00,0.00
2017-06-26 07:20:00,0,38787,0,0.00,0,0,0,0,25718,48084,7366,41120,0,0,0,0,0.00,0.00,0.00,0.00
2017-06-26 07:30:00,0,38118,0,0.00,0,0,0,0,30555,43896,4135,37913,0,0,0,0,0.00,0.00,0.00,0.00
2017-06-26 07:40:00,0,41853,0,0.00,0,0,0,0,36292,47376,3754,41794,0,0,0,0,0.00,0.00,0.00,0.00
2017-06-26 07:50:00,0,40573,0,0.00,0,0,0,0,33629,46200,3037,41092,0,0,0,0,0.00,0.00,0.00,0.00
2017-06-26 08:00:00,0,41485,0,0.00,0,0,0,0,33885,50000,4188,41285,0,0,0,0,0.00,0.00,0.00,0.00
2017-06-26 08:10:00,0,32526,0,0.00,0,0,0,0,23501,46817,6843,30067,0,0,0,0,0.00,0.00,0.00,0.00
2017-06-26 08:20:00,0,38169,0,0.00,0,0,0,0,26625,50000,7706,42182,0,0,0,0,0.00,0.00,0.00,0.00
2017-06-26 08:30:00,0,41408,0,0.00,0,0,0,0,35405,47513,4022,41184,0,0,0,0,0.00,0.00,0.00,0.00
2017-06-26 08:40:00,0,42979,0,0.00,0,0,0,0,34284,49386,4316,43489,0,0,0,0,0.00,0.00,0.00,0.00
2017-06-26 08:50:00,0,39816,0,0.00,0,0,0,0,33689,46833,3978,38622,0,0,0,0,0.00,0.00,0.00,0.00
2017-06-26 09:00:00,0,43090,0,0.00,0,0,0,0,35620,50000,4518,45360,0,0,0,0,0.00,0.00,0.00,0.00
2017-06-26 09:10:00,0,42245,0,0.00,0,0,0,0,35094,47141,4116,42804,0,0,0,0,0.00,0.00,0.00,0.00
2017-06-26 09:20:00,0,34101,0,0.00,0,0,0,0,26735,41729,4740,33286,0,0,0,0,0.00,0.00,0.00,0.00
2017-06-26 09:30:00,0,42567,0,0.00,0,0,0,0,35473,48435,3580,43448,0,0,0,0,0.00,0.00,0.00,0.00
2017-06-26 09:40:00,0,41195,0,0.00,0,0,0,0,34807,46249,4011,41271,0,0,0,0,0.00,0.00,0.00,0.00
2017-06-26 09:50:00,0,37326,0,0.00,0,0,0,0,30909,48778,6104,35344,0,0,0,0,0.00,0.00,0.00,0.00
2017-06-26 10:00:00,0,33649,0,0.00,0,0,0,0,18459,41150,6716,36690,0,0,0,0,0.00,0.00,0.00,0.00
2017-06-26 10:10:00,0,40057,0,0.00,0,0,0,0,29489,48284,4738,40596,0,0,0,0,0.00,0.00,0.00,0.00
2017-06-26 10:20:00,0,39872,0,0.00,0,0,0,0,33917,48995,4130,38916,0,0,0,0,0.00,0.00,0.00,0.00
2017-06-26 10:30:00,0,43290,0,0.00,0,0,0,0,38947,49668,3468,42662,0,0,0,0,0.00,0.00,0.00,0.00
2017-06-26 10:40:00,0,37499,0,0.00,0,0,0,0,29842,42960,3919,37696,0,0,0,0,0.00,0.00,0.00,0.00
2017-06-26 10:50:00,0,34402,0,0.00,0,0,0,0,24718,50000,7802,33525,0,0,0,0,0.00,0.00,0.00,0.00
2017-06-26 11:00:00,0,36099,0,0.00,0,0,0,0,28539,39884,3191,37094,0,0,0,0,0.00,0.00,0.00,0.00
2017-06-26 11:10:00,0,25892,0,0.00,0,0,0,0,15104,35676,6566,25500,0,0,0,0,0.00,0.00,0.00,0.00
2017-06-26 11:20:00,0,31077,0,0.00,0,0,0,0,25306,36436,4025,31196,0,0,0,0,0.00,0.00,0.00,0.00
2017-06-26 11:30:00,0,41695,0,0.00,0,0,0,0,31778,47024,4697,43084,0,0,0,0,0.00,0.00,0.00,0.00
2017-06-26 11:40:00,0,40040,0,0.00,0,0,0,0,34507,46375,3865,39887,0,0,0,0,0.00,0.00,0.00,0.00
2017-06-26 11:50:00,0,33432,0,0.00,0,0,0,0,29562,39727,3552,32077,0,0,0,0,0.00,0.00,0.00,0.00
2017-06-26 12:00:00,0,36092,0,0.00,0,0,0,0,23205,46755,7105,37264,0,0,0,0,0.00,0.00,0.00,0.00
2017-06-26 12:10:00,0,39311,0,0.00,0,0,0,0,33672,45078,3128,38430,0,0,0,0,0.00,0.00,0.00,0.00
2017-06-26 12:20:00,0,42743,0,0.00,0,0,0,0,33423,49068,4892,43632,0,0,0,0,0.00,0.00,0.00,0.00
2017-06-26 12:30:00,0,44222,0,0.00,0,0,0,0,40519,48585,2704,44603,0,0,0,0,0.00,0.00,0.00,0.00
2017-06-26 12:40:00,0,39058,0,0.00,0,0,0,0,32336,50000,5793,38168,0,0,0,0,0.00,0.00,0.00,0.00
2017-06-26 12:50:00,0,43161,0,0.00,0,0,0,0,38618,47152,2618,42548,0,0,0,0,0.00,0.00,0.00,0.00
2017-06-26 13:00:00,0,45713,0,0.00,0,0,0,0,39091,50000,4106,46475,0,0,0,0,0.00,0.00,0.00,0.00
2017-06-26 13:10:00,0,46928,0,0.00,0,0,0,0,41652,50000,3183,47951,0,0,0,0,0.00,0.00,0.00,0.00
2017-06-26 13:20:00,0,48088,0,0.00,0,0,0,0,39725,50000,3231,49840,0,0,0,0,0.00,0.00,0.00,0.00
2017-06-26 13:30:00,0,45329,0,0.00,0,0,0,0,29819,50000,6517,48400,0,0,0,0,0.00,0.00,0.00,0.00
2017-06-26 13:40:00,0,49366,0,0.00,0,0,0,0,46346,50000,1286,50000,0,0,0,0,0.00,0.00,0.00,0.00
2017-06-26 13:50:00,0,49637,0,0.00,0,0,0,0,46427,50000,1070,50000,0,0,0,0,0.00,0.00,0.00,0.00
2017-06-26 14:00:00,0,50000,0,0.00,0,0,0,0,50000,50000,0,50000,0,0,0,0,0.00,0.00,0.00,0.00
2017-06-26 14:10:00,0,49875,0,0.00,0,0,0,0,48747,50000,376,50000,0,0,0,0,0.00,0.00,0.00,0.00
2017-06-26 14:20:00,0,46932,0,0.00,0,0,0,0,43614,50000,2059,46966,0,0,0,0,0.00,0.00,0.00,0.00
2017-06-26 14:30:00,0,45552,0,0.00,0,0,0,0,38863,50000,3165,46004,0,0,0,0,0.00,0.00,0.00,0.00
2017-06-26 14:40:00,0,40310,0,0.00,0,0,0,0,15762,50000,12530,45590,0,0,0,0,0.00,0.00,0.00,0.00
2017-06-26 14:50:00,0,41837,0,0.00,0,0,0,0,26588,48487,6777,44656,0,0,0,0,0.00,0.00,0.00,0.00
2017-06-26 15:00:00,0,48470,0,0.00,0,0,0,0,44844,50000,2109,50000,0,0,0,0,0.00,0.00,0.00,0.00
2017-06-26 15:10:00,0,49652,0,0.00,0,0,0,0,46552,50000,1033,50000,0,0,0,0,0.00,0.00,0.00,0.00
2017-06-26 15:20:00,0,50000,0,0.00,0,0,0,0,50000,50000,0,50000,0,0,0,0,0.00,0.00,0.00,0.00
2017-06-26 15:30:00,0,48362,0,0.00,0,0,0,0,43447,50000,2316,50000,0,0,0,0,0.00,0.00,0.00,0.00
2017-06-26 15:40:00,0,49766,0,0.00,0,0,0,0,49010,50000,389,50000,0,0,0,0,0.00,0.00,0.00,0.00
2017-06-26 15:50:00,0,49780,0,0.00,0,0,0,0,48091,50000,568,50000,0,0,0,0,0.00,0.00,0.00,0.00
2017-06-26 16:00:00,0,48363,0,0.00,0,0,0,0,40457,50000,3330,50000,0,0,0,0,0.00,0.00,0.00,0.00
2017-06-26 16:10:00,0,49832,0,0.00,0,0,0,0,49042,50000,341,50000,0,0,0,0,0.00,0.00,0.00,0.00
2017-06-26 16:20:00,0,49982,0,0.00,0,0,0,0,49817,50000,55,50000,0,0,0,0,0.00,0.00,0.00,0.00
2017-06-26 16:30:00,0,50000,0,0.00,0,0,0,0,50000,50000,0,50000,0,0,0,0,0.00,0.00,0.00,0.00
2017-06-26 16:40:00,0,49756,0,0.00,0,0,0,0,47860,50000,638,50000,0,0,0,0,0.00,0.00,0.00,0.00
2017-06-26 16:50:00,0,49847,0,0.00,0,1,0,0,48921,50000,340,50000,0,0,0,0,0.00,0.00,0.00,0.00
2017-06-26 17:00:00,0,49732,0,0.00,0,0,0,0,48648,50000,535,50000,0,0,0,0,0.00,0.00,0.00,0.00
2017-06-26 17:10:00,0,49445,0,0.00,0,0,0,0,45626,50000,1297,50000,0,0,0,0,0.00,0.00,0.00,0.00
2017-06-26 17:20:00,0,49729,0,0.00,0,0,0,0,48281,50000,527,50000,0,0,0,0,0.00,0.00,0.00,0.00
2017-06-26 17:30:00,0,49784,0,0.00,0,0,0,0,47844,50000,647,50000,0,0,0,0,0.00,0.00,0.00,0.00
2017-06-26 17:40:00,0,50000,0,0.00,0,0,0,0,50000,50000,0,50000,0,0,0,0,0.00,0.00,0.00,0.00
2017-06-26 17:50:00,0,50000,0,0.00,0,0,0,0,50000,50000,0,50000,0,0,0,0,0.00,0.00,0.00,0.00
2017-06-26 18:00:00,0,49915,0,0.00,0,0,0,0,49300,50000,207,50000,0,0,0,0,0.00,0.00,0.00,0.00
2017-06-26 18:10:00,0,49903,0,0.00,0,0,0,0,49026,50000,292,50000,0,0,0,0,0.00,0.00,0.00,0.00
2017-06-26 18:20:00,0,49902,0,0.00,0,0,0,0,49025,50000,292,50000,0,0,0,0,0.00,0.00,0.00,0.00
2017-06-26 18:30:00,0,50000,0,0.00,0,0,0,0,50000,50000,0,50000,0,0,0,0,0.00,0.00,0.00,0.00
2017-06-26 18:40:00,0,50000,0,0.00,0,0,0,0,50000,50000,0,50000,0,0,0,0,0.00,0.00,0.00,0.00
2017-06-26 18:50:00,0,49944,0,0.00,0,0,0,0,49440,50000,168,50000,0,0,0,0,0.00,0.00,0.00,0.00
2017-06-26 19:00:00,0,50000,0,0.00,0,0,0,0,50000,50000,0,50000,0,0,0,0,0.00,0.00,0.00,0.00
2017-06-26 19:10:00,0,50000,0,0.00,0,0,0,0,50000,50000,0,50000,0,0,0,0,0.00,0.00,0.00,0.00
2017-06-26 19:20:00,0,49402,0,0.00,0,0,0,0,47633,50000,939,50000,0,0,0,0,0.00,0.00,0.00,0.00
2017-06-26 19:30:00,0,49917,0,0.00,0,0,0,0,49168,50000,250,50000,0,0,0,0,0.00,0.00,0.00,0.00
2017-06-26 19:40:00,0,49882,0,0.00,0,0,0,0,48818,50000,355,50000,0,0,0,0,0.00,0.00,0.00,0.00
2017-06-26 19:50:00,0,48798,0,0.00,0,0,0,0,43689,50000,2409,50000,0,0,0,0,0.00,0.00,0.00,0.00
2017-06-26 20:00:00,0,48789,0,0.00,0,0,0,0,43540,50000,2041,49936,0,0,0,0,0.00,0.00,0.00,0.00
2017-06-26 20:10:00,0,50000,0,0.00,0,0,0,0,50000,50000,0,50000,0,0,0,0,0.00,0.00,0.00,0.00
2017-06-26 20:20:00,0,49963,0,0.00,0,0,0,0,49628,50000,112,50000,0,0,0,0,0.00,0.00,0.00,0.00
2017-06-26 20:30:00,0,49224,0,0.00,0,0,0,0,46798,50000,1196,50000,0,0,0,0,0.00,0.00,0.00,0.00
2017-06-26 20:40:00,0,49945,0,0.00,0,0,0,0,49485,50000,154,50000,0,0,0,0,0.00,0.00,0.00,0.00
2017-06-26 20:50:00,0,49024,0,0.00,0,0,0,0,45904,50000,1543,50000,0,0,0,0,0.00,0.00,0.00,0.00
2017-06-26 21:00:00,0,48863,0,0.00,0,0,0,0,45777,50000,1572,49994,0,0,0,0,0.00,0.00,0.00,0.00
2017-06-26 21:10:00,0,49982,0,0.00,0,0,0,0,49822,50000,53,50000,0,0,0,0,0.00,0.00,0.00,0.00
2017-06-26 21:20:00,0,49658,0,0.00,0,0,0,0,48382,50000,592,50000,0,0,0,0,0.00,0.00,0.00,0.00
2017-06-26 21:30:00,0,49902,0,0.00,0,0,0,0,49526,50000,149,50000,0,0,0,0,0.00,0.00,0.00,0.00
2017-06-26 21:40:00,0,49264,0,0.00,0,0,0,0,46082,50000,1475,50000,0,0,0,0,0.00,0.00,0.00,0.00
2017-06-26 21:50:00,0,47674,0,0.00,0,0,0,0,41628,50000,3072,49778,0,0,0,0,0.00,0.00,0.00,0.00
2017-06-26 22:00:00,0,49526,0,0.00,0,0,0,0,47214,50000,855,50000,0,0,0,0,0.00,0.00,0.00,0.00
2017-06-26 22:10:00,0,49634,0,0.00,0,0,0,0,47011,50000,897,50000,0,0,0,0,0.00,0.00,0.00,0.00
2017-06-26 22:20:00,0,49192,0,0.00,0,0,0,0,43461,50000,1945,50000,0,0,0,0,0.00,0.00,0.00,0.00
2017-06-26 22:30:00,0,46682,0,0.00,0,0,0,0,41841,50000,2997,46724,0,0,0,0,0.00,0.00,0.00,0.00
2017-06-26 22:40:00,0,48760,0,0.00,0,0,0,0,45570,50000,1441,49325,0,0,0,0,0.00,0.00,0.00,0.00
2017-06-26 22:50:00,0,48665,0,0.00,0,0,0,0,45526,50000,1699,49905,0,0,0,0,0.00,0.00,0.00,0.00
2017-06-26 23:00:00,0,47736,0,0.00,0,0,0,0,41376,50000,3082,49157,0,0,0,0,0.00,0.00,0.00,0.00
2017-06-26 23:10:00,0,49536,0,0.00,0,0,0,0,47324,50000,880,50000,0,0,0,0,0.00,0.00,0.00,0.00
2017-06-26 23:20:00,0,49237,0,0.00,0,0,0,0,45600,50000,1327,50000,0,0,0,0,0.00,0.00,0.00,0.00
2017-06-26 23:30:00,0,48056,0,0.00,0,0,0,0,42735,50000,2622,49850,0,0,0,0,0.00,0.00,0.00,0.00
2017-06-26 23:40:00,0,49562,0,0.00,0,0,0,0,45758,50000,1214,50000,0,0,0,0,0.00,0.00,0.00,0.00
2017-06-26 23:50:00,0,49781,0,0.00,0,0,0,0,48231,50000,532,50000,0,0,0,0,0.00,0.00,0.00,0.00
